Date,TemperatureHighF,TemperatureAvgF,TemperatureLowF,DewpointHighF,DewpointAvgF,DewpointLowF,HumidityHigh,HumidityAvg,HumidityLow,PressureMaxIn,PressureMinIn,WindSpeedMaxMPH,WindSpeedAvgMPH,GustSpeedMaxMPH,PrecipitationSumIn
2012-1-1,57.0,43.6,34.0,46.0,30.5,13.0,95,62,33,0.00,40.00,25,10,43,0.55
2012-1-2,35.0,28.0,22.0,20.0,15.6,10.0,77,59,42,0.00,40.00,16,9,29,0.55
2012-1-3,29.0,23.4,19.0,12.0,9.2,4.0,66,55,38,0.00,40.00,13,6,22,3.85
2012-1-4,42.0,31.6,21.0,25.0,14.7,8.0,66,50,37,0.00,40.00,9,4,16,0.00
2012-1-5,53.0,41.6,28.0,27.0,21.4,-99.9,83,49,28,0.00,40.00,10,-21,18,0.00
2012-1-6,62.0,51.0,42.0,33.0,29.4,26.0,55,44,32,0.00,40.00,12,5,20,0.00
2012-1-7,54.0,44.9,37.0,41.0,30.5,23.0,88,59,30,0.00,40.00,9,3,14,0.00
2012-1-8,47.0,37.1,28.0,28.0,24.6,-99.9,90,64,37,0.00,40.00,6,-5,11,5.63
2012-1-9,53.0,40.2,31.0,27.0,24.8,20.0,79,56,28,0.00,40.00,7,2,12,0.00
2012-1-10,56.0,38.6,28.0,31.0,27.2,24.0,88,67,33,0.00,40.00,4,2,9,1.10
2012-1-11,49.0,41.5,31.0,47.0,38.8,27.0,96,90,75,0.00,40.00,8,1,16,6.60
2012-1-12,47.0,38.1,18.0,43.0,33.0,9.0,93,82,56,0.00,40.00,18,7,33,10.07
2012-1-13,23.0,20.0,17.0,13.0,10.2,6.0,79,65,59,0.00,40.00,18,8,30,1.65
2012-1-14,31.0,24.9,20.0,21.0,13.6,10.0,74,62,46,0.00,40.00,9,3,14,0.55
2012-1-15,35.0,26.5,16.0,20.0,14.5,9.0,84,62,36,0.00,40.00,9,4,14,1.65
2012-1-16,57.0,44.8,27.0,47.0,35.3,22.0,83,69,47,0.00,40.00,14,8,25,1.10
2012-1-17,60.0,49.0,35.0,54.0,40.4,-99.9,94,74,55,0.00,40.00,20,3,38,15.20
2012-1-18,35.0,29.6,24.0,25.0,17.2,12.0,82,60,46,0.00,40.00,16,4,22,0.55
2012-1-19,39.0,30.4,25.0,25.0,20.4,16.0,76,66,52,0.00,40.00,11,6,19,0.00
2012-1-20,31.0,24.1,17.0,27.0,13.9,8.0,89,65,54,0.00,40.00,7,3,15,1.10
2012-1-21,30.0,27.2,25.0,28.0,22.6,-99.9,91,84,81,0.00,40.00,9,-4,14,0.00
2012-1-22,53.0,34.6,28.0,47.0,32.4,24.0,95,91,82,0.00,40.00,11,2,17,0.55
2012-1-23,60.0,51.2,41.0,52.0,43.1,31.0,92,74,60,0.00,40.00,18,9,33,2.24
2012-1-24,41.0,36.3,33.0,32.0,25.7,-99.9,78,69,66,0.00,40.00,8,-18,16,0.55
2012-1-25,40.0,34.2,31.0,34.0,25.3,-99.9,92,76,69,0.00,40.00,5,-29,9,3.30
2012-1-26,49.0,41.0,36.0,49.0,36.9,-99.9,96,92,91,0.00,40.00,9,-26,16,16.84
2012-1-27,44.0,35.6,37.0,43.0,23.4,-99.9,93,75,69,0.00,40.00,13,-66,21,1.65
2012-1-28,43.0,35.0,33.0,35.0,14.3,-99.9,86,55,28,0.00,40.00,17,-65,33,0.00
2012-1-29,48.0,35.2,29.0,21.0,12.6,-99.9,62,44,30,0.00,40.00,19,-38,32,0.00
2012-1-30,59.0,45.9,28.0,28.0,23.7,-99.9,74,44,29,0.00,40.00,13,-3,24,0.00
2012-1-31,63.0,53.2,48.0,45.0,29.4,-99.9,87,43,30,0.00,40.00,16,-15,27,0.55
2012-2-1,64.0,54.7,46.0,49.0,42.0,-99.9,80,65,49,0.00,40.00,8,-11,16,0.00
2012-2-2,56.0,45.2,37.0,41.0,34.7,-99.9,85,69,43,0.00,40.00,7,-5,10,1.10
2012-2-3,57.0,39.9,30.0,36.0,26.0,-99.9,95,68,32,0.00,40.00,6,-40,10,0.00
2012-2-4,46.0,40.8,40.0,39.0,31.2,-99.9,93,76,56,0.00,40.00,6,-34,9,3.89
2012-2-5,49.0,39.1,31.0,38.0,26.1,-99.9,92,68,35,0.00,40.00,7,-32,12,1.10
2012-2-6,51.0,37.6,26.0,31.0,25.9,22.0,93,67,32,0.00,40.00,9,2,12,0.00
2012-2-7,41.0,34.6,28.0,29.0,27.2,26.0,91,75,58,0.00,40.00,6,2,10,0.00
2012-2-8,37.0,34.8,33.0,31.0,27.0,19.0,93,74,53,0.00,40.00,8,3,17,7.23
2012-2-9,38.0,34.2,31.0,28.0,23.8,20.0,80,66,52,0.00,40.00,9,3,14,0.00
2012-2-10,35.0,32.1,29.0,31.0,24.6,19.0,91,75,56,0.00,40.00,7,3,12,12.30
2012-2-11,34.0,23.1,17.0,31.0,12.7,5.0,89,64,51,0.00,40.00,20,10,32,4.40
2012-2-12,37.0,28.8,18.0,17.0,12.2,5.0,60,49,40,0.00,40.00,12,5,19,1.10
2012-2-13,38.0,33.8,21.0,19.0,14.6,10.0,83,47,32,0.00,40.00,7,3,14,0.00
2012-2-14,39.0,35.9,32.0,35.0,29.8,19.0,93,79,52,0.00,40.00,7,3,14,3.89
2012-2-15,50.0,41.4,35.0,41.0,32.9,-99.9,91,74,55,0.00,40.00,9,-5,13,10.11
2012-2-16,50.0,45.4,41.0,47.0,41.0,33.0,95,85,65,0.00,40.00,11,3,22,2.24
2012-2-17,53.0,40.9,31.0,36.0,28.8,21.0,95,66,28,0.00,40.00,9,2,15,0.55
2012-2-18,33.0,29.6,29.0,28.0,23.9,-99.9,89,84,80,0.00,40.00,4,-20,6,0.00
2012-2-23,58.0,52.8,45.0,44.0,38.8,37.0,88,60,47,0.00,40.00,11,4,19,0.00
2012-2-24,54.0,42.5,35.0,43.0,32.1,23.0,91,67,42,0.00,40.00,19,8,40,1.65
2012-2-25,40.0,32.0,26.0,21.0,14.4,-99.9,65,49,34,0.00,40.00,17,0,32,0.00
2012-2-26,52.0,34.9,21.0,27.0,19.3,16.0,88,57,24,0.00,40.00,12,4,19,0.00
2012-2-27,61.0,47.1,31.0,32.0,25.2,19.0,77,45,23,0.00,40.00,12,5,24,0.00
2012-2-28,61.0,44.1,29.0,35.0,26.4,22.0,78,52,28,0.00,40.00,6,2,11,0.55
2012-2-29,69.0,59.5,47.0,60.0,45.0,-99.9,95,63,32,0.00,40.00,16,-8,27,2.20
2012-3-1,58.0,47.9,39.0,36.0,29.2,-99.9,84,51,37,0.00,40.00,14,-9,22,0.00
2012-3-2,63.0,43.7,35.0,57.0,31.1,-99.9,94,75,49,0.00,40.00,17,-67,35,2.79
2012-3-3,46.0,37.5,35.0,31.0,16.9,-99.9,75,53,39,0.00,40.00,18,-62,29,0.00
2012-3-4,40.0,33.3,31.0,23.0,13.3,-99.9,65,51,39,0.00,40.00,11,-52,21,0.00
2012-3-5,38.0,32.8,30.0,29.0,19.1,-99.9,92,63,43,0.00,40.00,11,-24,19,2.75
2012-3-6,63.0,44.6,28.0,35.0,21.9,-99.9,78,47,23,0.00,40.00,11,-26,17,1.10
2012-3-7,70.0,56.9,46.0,44.0,29.4,-99.9,50,38,26,0.00,40.00,18,-33,32,0.00
2012-3-8,62.0,54.3,40.0,56.0,44.0,-99.9,91,70,48,0.00,40.00,15,1,25,8.92
2012-3-9,48.0,41.8,35.0,32.0,21.3,11.0,77,46,23,0.00,40.00,17,6,25,0.00
2012-3-10,55.0,39.7,28.0,30.0,20.3,16.0,69,49,23,0.00,40.00,7,2,12,0.00
2012-3-11,67.0,49.9,32.0,40.0,32.4,28.0,88,55,25,0.00,40.00,6,2,14,0.00
2012-3-12,65.0,58.3,52.0,58.0,50.5,37.0,89,76,47,0.00,40.00,14,6,25,3.30
2012-3-13,77.0,66.5,56.0,59.0,55.3,51.0,83,69,42,0.00,40.00,10,4,21,0.00
2012-3-14,80.0,62.1,47.0,56.0,50.1,45.0,94,69,35,0.00,40.00,12,3,19,3.39
2012-3-15,77.0,61.3,53.0,63.0,55.3,49.0,94,81,55,0.00,40.00,17,4,31,1.10
2012-3-16,70.0,61.7,56.0,59.0,56.8,54.0,95,84,64,0.00,40.00,9,2,16,0.55
2012-3-17,78.0,63.1,51.0,60.0,55.4,51.0,97,79,48,0.00,40.00,9,2,13,0.00
2012-3-18,82.0,69.0,59.0,60.0,58.1,56.0,91,70,44,0.00,40.00,9,4,17,0.00
2012-3-19,84.0,69.4,58.0,60.0,56.6,53.0,94,68,35,0.00,40.00,8,2,14,0.55
2012-3-20,87.0,69.4,58.0,59.0,55.3,-99.9,90,66,33,0.00,40.00,6,2,11,3.39
2012-3-21,87.0,69.7,56.0,60.0,56.5,53.0,92,67,35,0.00,40.00,6,2,12,0.00
2012-3-22,84.0,69.5,59.0,60.0,56.3,-99.9,91,67,36,0.00,40.00,7,-4,13,0.00
2012-3-23,69.0,64.2,58.0,64.0,61.4,58.0,97,91,75,0.00,40.00,6,2,13,5.58
2012-3-24,66.0,59.1,51.0,61.0,50.6,44.0,97,76,44,0.00,40.00,9,2,21,3.39
2012-3-25,67.0,57.2,48.0,55.0,51.2,46.0,95,81,60,0.00,40.00,9,2,16,0.00
2012-3-26,57.0,52.2,42.0,53.0,38.1,-99.9,95,62,38,0.00,40.00,9,-3,18,0.00
2012-3-27,67.0,49.6,36.0,43.0,27.5,19.0,72,44,24,0.00,40.00,9,3,12,0.55
2012-3-28,78.0,65.0,48.0,57.0,46.6,35.0,83,55,22,0.00,40.00,15,5,28,0.00
2012-3-29,66.0,56.3,46.0,44.0,38.5,34.0,75,53,33,0.00,40.00,7,3,15,0.55
2012-3-30,81.0,60.4,48.0,58.0,46.6,-99.9,90,65,40,0.00,40.00,12,-10,35,3.93
2012-3-31,62.0,52.5,45.0,56.0,45.7,41.0,91,77,67,0.00,40.00,9,3,16,1.10
2012-4-1,75.0,55.6,42.0,59.0,48.6,39.0,90,79,56,0.00,40.00,12,3,19,1.69
2012-4-2,70.0,59.1,49.0,61.0,44.6,35.0,96,62,31,0.00,40.00,11,3,21,0.00
2012-4-3,84.0,64.4,50.0,64.0,50.6,41.0,83,63,41,0.00,40.00,4,2,9,0.00
2012-4-4,71.0,63.6,56.0,61.0,55.6,34.0,91,76,42,0.00,40.00,10,3,18,0.00
2012-4-5,60.0,52.9,46.0,35.0,30.4,23.0,55,42,32,0.00,40.00,10,4,20,0.00
2012-4-6,62.0,47.7,37.0,33.0,29.8,26.0,78,52,27,0.00,40.00,11,4,20,0.00
2012-4-7,69.0,50.5,34.0,38.0,25.3,-99.9,82,45,14,0.00,40.00,9,-6,14,0.00
2012-4-8,67.0,56.4,47.0,44.0,34.8,18.0,76,48,17,0.00,40.00,16,5,25,0.00
2012-4-9,67.0,54.2,42.0,39.0,31.5,22.0,82,47,18,0.00,40.00,16,5,32,0.00
2012-4-10,56.0,48.8,40.0,32.0,23.8,15.0,57,38,22,0.00,40.00,16,6,28,0.00
2012-4-11,53.0,42.4,34.0,30.0,25.0,21.0,71,51,34,0.00,40.00,11,4,19,0.00
2012-4-12,63.0,47.4,33.0,37.0,30.5,25.0,95,59,25,0.00,40.00,7,2,14,1.65
2012-4-13,68.0,52.9,38.0,42.0,34.2,27.0,90,55,24,0.00,40.00,8,2,12,1.10
2012-4-14,58.0,55.0,52.0,56.0,48.9,40.0,96,80,53,0.00,40.00,6,2,14,4.52
2012-4-15,81.0,67.7,55.0,57.0,53.0,-99.9,95,64,37,0.00,40.00,16,6,25,0.00
2012-4-16,74.0,68.9,58.0,62.0,52.8,42.0,86,57,43,0.00,40.00,15,8,29,0.00
2012-4-17,64.0,55.2,47.0,47.0,43.8,40.0,89,68,42,0.00,40.00,4,2,7,0.00
2012-4-18,71.0,57.8,47.0,47.0,43.1,36.0,88,62,29,0.00,40.00,6,2,10,0.00
2012-4-19,77.0,59.8,46.0,51.0,45.2,40.0,96,65,27,0.00,40.00,9,2,16,0.00
2012-4-20,78.0,62.8,51.0,57.0,50.8,47.0,91,68,40,0.00,40.00,14,5,26,1.10
2012-4-21,56.0,47.4,44.0,51.0,42.6,37.0,92,83,71,0.00,40.00,9,4,16,10.03
2012-4-22,50.0,44.7,38.0,37.0,33.0,-99.9,91,67,47,0.00,40.00,11,3,16,0.00
2012-4-23,61.0,49.8,41.0,33.0,21.6,12.0,73,36,17,0.00,40.00,22,9,35,0.00
2012-4-24,64.0,53.7,44.0,39.0,21.6,12.0,50,29,18,0.00,40.00,14,7,26,0.00
2012-4-25,71.0,59.6,51.0,60.0,49.9,39.0,92,72,49,0.00,40.00,16,4,25,1.65
2012-4-26,73.0,63.0,53.0,61.0,53.8,33.0,95,74,46,0.00,40.00,17,6,25,0.00
2012-4-27,62.0,50.9,41.0,34.0,29.1,24.0,69,44,26,0.00,40.00,7,3,16,0.00
2012-4-28,53.0,49.1,44.0,46.0,40.0,31.0,95,72,44,0.00,40.00,10,3,21,0.00
2012-4-29,67.0,54.2,46.0,55.0,46.2,-99.9,93,76,60,0.00,40.00,8,2,12,0.00
2012-4-30,84.0,71.5,55.0,65.0,58.9,52.0,94,67,44,0.00,40.00,12,4,23,3.34
2012-5-1,80.0,66.8,62.0,68.0,60.4,-99.9,96,83,63,0.00,40.00,17,-11,34,2.20
2012-5-2,89.0,73.6,61.0,67.0,61.9,-99.9,94,71,44,0.00,40.00,11,-3,19,0.00
2012-5-3,86.0,74.6,62.0,67.0,64.1,61.0,95,72,48,0.00,40.00,9,3,14,0.00
2012-5-4,85.0,72.9,64.0,69.0,65.1,62.0,94,77,55,0.00,40.00,7,2,12,3.94
2012-5-5,80.0,70.6,65.0,67.0,64.9,63.0,96,83,59,0.00,40.00,6,2,11,1.65
2012-5-6,85.0,69.4,59.0,68.0,58.6,-99.9,95,75,47,0.00,40.00,4,-12,12,0.00
2012-5-7,86.0,72.9,63.0,66.0,63.5,61.0,96,75,45,0.00,40.00,12,4,22,6.77
2012-5-8,74.0,67.4,61.0,65.0,58.2,50.0,95,75,49,0.00,40.00,7,3,14,1.10
2012-5-9,73.0,63.0,56.0,55.0,47.0,-99.9,91,60,32,0.00,40.00,12,-2,22,0.00
2012-5-10,69.0,59.0,50.0,46.0,40.8,37.0,74,53,33,0.00,40.00,10,4,19,0.00
2012-5-11,75.0,59.5,46.0,49.0,42.1,34.0,96,60,22,0.00,40.00,7,2,10,0.55
2012-5-12,75.0,61.7,49.0,58.0,48.1,38.0,92,66,27,0.00,40.00,5,2,7,0.00
2012-5-13,63.0,60.0,59.0,60.0,57.3,-99.9,96,93,84,0.00,40.00,4,1,8,13.36
2012-5-14,76.0,65.0,60.0,60.0,57.3,53.0,95,78,47,0.00,40.00,7,2,15,0.00
2012-5-15,81.0,67.1,55.0,62.0,56.5,52.0,97,73,39,0.00,40.00,6,2,12,0.00
2012-5-16,84.0,69.1,57.0,60.0,54.4,44.0,95,64,35,0.00,40.00,8,3,14,0.00
2012-5-17,74.0,63.1,52.0,45.0,39.7,34.0,72,44,26,0.00,40.00,9,3,16,0.00
2012-5-18,83.0,64.2,48.0,54.0,48.0,44.0,90,61,29,0.00,40.00,5,2,9,0.00
2012-5-19,87.0,69.6,54.0,61.0,54.7,49.0,93,64,27,0.00,40.00,4,2,8,0.00
2012-5-20,87.0,72.8,59.0,64.0,57.4,-99.9,93,64,35,0.00,40.00,7,2,15,0.00
2012-5-21,83.0,70.4,59.0,63.0,59.4,56.0,91,70,46,0.00,40.00,12,3,21,0.00
2012-5-22,74.0,66.6,61.0,62.0,57.1,53.0,93,71,57,0.00,40.00,6,2,12,0.00
2012-5-23,80.0,68.3,58.0,62.0,59.1,56.0,97,75,48,0.00,40.00,6,2,10,0.00
2012-5-24,85.0,72.6,61.0,65.0,60.8,59.0,94,70,43,0.00,40.00,11,4,19,0.00
2012-5-25,90.0,77.3,67.0,71.0,63.9,58.0,87,64,46,0.00,40.00,7,3,17,0.00
2012-5-26,92.0,79.4,67.0,70.0,67.5,65.0,94,70,42,0.00,40.00,6,2,9,0.00
2012-5-27,92.0,79.5,68.0,71.0,66.7,-99.9,97,71,41,0.00,40.00,7,2,12,0.00
2012-5-28,92.0,80.4,69.0,73.0,69.5,67.0,93,72,48,0.00,40.00,9,3,12,0.00
2012-5-29,82.0,73.8,67.0,70.0,67.7,62.0,93,82,64,0.00,40.00,14,2,29,2.24
2012-5-30,84.0,72.8,63.0,67.0,56.8,46.0,97,64,29,0.00,40.00,12,4,25,0.00
2012-5-31,82.0,67.7,55.0,64.0,53.1,48.0,95,64,33,0.00,40.00,7,2,12,6.17
2012-6-1,65.0,61.9,57.0,64.0,56.4,48.0,96,82,66,0.00,40.00,13,5,22,1.10
2012-6-2,71.0,61.8,51.0,52.0,47.3,41.0,88,61,36,0.00,40.00,12,4,22,0.00
2012-6-3,81.0,67.8,54.0,57.0,51.8,-99.9,92,61,35,0.00,40.00,12,3,20,0.00
2012-6-4,82.0,70.3,60.0,60.0,56.8,49.0,91,64,36,0.00,40.00,11,3,17,0.00
2012-6-5,72.0,63.9,55.0,53.0,51.0,49.0,87,64,45,0.00,40.00,8,2,15,1.69
2012-6-6,76.0,64.0,53.0,53.0,49.9,46.0,91,63,36,0.00,40.00,9,3,16,0.00
2012-6-7,84.0,68.0,53.0,57.0,50.9,45.0,93,60,29,0.00,40.00,6,2,11,0.00
2012-6-8,87.0,71.7,57.0,59.0,52.4,42.0,92,58,22,0.00,40.00,7,2,11,0.00
2012-6-9,88.0,72.6,58.0,62.0,55.9,50.0,92,61,29,0.00,40.00,6,2,12,0.00
2012-6-10,89.0,75.2,61.0,65.0,59.6,-99.9,93,64,32,0.00,40.00,9,3,16,0.00
2012-6-11,82.0,73.7,67.0,71.0,67.1,62.0,94,81,62,0.00,40.00,5,2,9,1.65
2012-6-12,87.0,77.2,69.0,70.0,62.7,45.0,95,65,31,0.00,40.00,9,4,17,0.00
2012-6-13,82.0,69.8,58.0,56.0,50.7,45.0,70,52,36,0.00,40.00,7,3,15,0.00
2012-6-14,85.0,69.2,54.0,56.0,50.3,45.0,85,55,28,0.00,40.00,8,2,13,0.00
2012-6-15,90.0,74.2,58.0,68.0,60.7,55.0,92,66,39,0.00,40.00,6,2,11,7.33
2012-6-16,89.0,78.1,67.0,69.0,66.9,64.0,93,70,45,0.00,40.00,10,3,16,0.00
2012-6-17,84.0,76.3,69.0,71.0,66.7,-99.9,94,74,59,0.00,40.00,17,4,31,0.00
2012-6-18,89.0,78.7,69.0,70.0,66.1,63.0,95,68,44,0.00,40.00,12,4,20,0.00
2012-6-19,92.0,80.4,69.0,69.0,65.4,61.0,91,63,37,0.00,40.00,9,3,16,0.00
2012-6-20,93.0,81.1,69.0,70.0,66.3,61.0,93,65,38,0.00,40.00,7,2,12,0.00
2012-6-21,93.0,81.6,70.0,70.0,65.0,59.0,93,61,33,0.00,40.00,11,3,19,0.00
2012-6-22,89.0,78.8,71.0,67.0,61.8,53.0,85,59,30,0.00,40.00,7,3,23,0.00
2012-6-23,90.0,76.8,63.0,60.0,55.1,48.0,77,50,25,0.00,40.00,7,2,12,0.00
2012-6-24,92.0,79.4,67.0,67.0,60.6,53.0,80,55,29,0.00,40.00,5,2,9,0.00
2012-6-25,85.0,76.6,68.0,65.0,56.7,43.0,87,54,26,0.00,40.00,11,4,18,0.00
2012-6-26,81.0,69.0,55.0,51.0,46.6,43.0,72,46,29,0.00,40.00,9,3,17,0.00
2012-6-27,90.0,73.1,57.0,60.0,52.3,46.0,89,54,23,0.00,40.00,9,2,14,0.00
2012-6-28,102.0,84.7,64.0,67.0,62.3,55.0,90,52,29,0.00,40.00,12,4,22,0.00
2012-6-29,102.0,82.3,70.0,75.0,68.4,64.0,94,65,40,0.00,40.00,17,3,51,0.55
2012-6-30,99.0,84.3,68.0,71.0,67.3,63.0,94,60,32,0.00,40.00,7,2,18,0.00
2012-7-1,98.0,80.4,70.0,73.0,68.7,62.0,94,70,36,0.00,40.00,12,2,38,3.34
2012-7-2,96.0,80.9,67.0,73.0,66.8,64.0,92,66,36,0.00,40.00,8,2,11,0.00
2012-7-3,96.0,84.7,74.0,73.0,68.1,62.0,89,61,35,0.00,40.00,7,3,13,0.00
2012-7-4,101.0,87.2,74.0,74.0,69.4,66.0,87,58,33,0.00,40.00,9,2,14,0.00
2012-7-5,100.0,84.0,74.0,75.0,72.2,65.0,89,70,33,0.00,40.00,20,2,31,1.10
2012-7-6,102.0,85.3,71.0,75.0,69.6,66.0,92,63,31,0.00,40.00,6,2,9,0.00
2012-7-7,104.0,85.4,75.0,77.0,72.1,66.0,92,68,29,0.00,40.00,14,2,25,0.00
2012-7-8,98.0,83.5,75.0,76.0,72.9,70.0,93,73,40,0.00,40.00,9,2,18,2.83
2012-7-9,91.0,79.3,71.0,73.0,59.5,49.0,91,55,25,0.00,40.00,7,2,13,0.00
2012-7-10,92.0,78.4,65.0,66.0,60.1,56.0,89,57,30,0.00,40.00,6,2,10,0.00
2012-7-11,94.0,80.0,65.0,62.0,58.2,53.0,78,50,27,0.00,40.00,7,2,12,0.00
2012-7-12,87.0,78.6,69.0,68.0,64.0,56.0,84,62,44,0.00,40.00,12,3,19,0.00
2012-7-13,83.0,76.2,71.0,68.0,66.7,65.0,85,73,55,0.00,40.00,9,4,14,0.00
2012-7-14,86.0,77.5,73.0,73.0,70.4,68.0,93,80,58,0.00,40.00,9,3,14,0.00
2012-7-15,89.0,78.0,71.0,74.0,70.8,69.0,95,79,56,0.00,40.00,7,3,25,0.00
2012-7-16,96.0,83.3,73.0,73.0,70.7,66.0,93,69,39,0.00,40.00,7,2,12,0.00
2012-7-17,98.0,86.1,76.0,74.0,71.7,69.0,89,64,41,0.00,40.00,8,3,15,0.00
2012-7-18,96.0,79.9,71.0,75.0,71.2,68.0,96,76,47,0.00,40.00,7,2,12,0.00
2012-7-19,87.0,76.0,71.0,75.0,71.6,69.0,95,86,68,0.00,40.00,9,3,15,1.10
2012-7-20,80.0,75.8,72.0,74.0,69.4,62.0,95,81,68,0.00,40.00,7,3,13,0.00
2012-7-21,85.0,73.6,62.0,67.0,62.3,60.0,92,70,43,0.00,40.00,7,2,12,0.00
2012-7-22,90.0,77.2,66.0,70.0,65.5,59.0,97,71,38,0.00,40.00,6,2,10,0.00
2012-7-23,95.0,83.2,73.0,74.0,71.4,69.0,92,69,46,0.00,40.00,8,3,14,0.00
2012-7-24,87.0,81.7,71.0,76.0,72.2,66.0,92,73,58,0.00,40.00,10,3,34,0.55
2012-7-25,96.0,81.5,73.0,77.0,71.9,65.0,87,73,53,0.00,40.00,9,3,18,0.00
2012-7-26,94.0,84.4,75.0,75.0,72.9,69.0,95,70,49,0.00,40.00,11,5,29,0.00
2012-7-27,93.0,78.1,67.0,73.0,69.0,60.0,94,77,35,0.00,40.00,16,3,46,1.69
2012-7-28,84.0,74.7,67.0,68.0,64.9,61.0,94,73,46,0.00,40.00,9,3,14,0.00
2012-7-29,86.0,74.8,65.0,66.0,63.5,59.0,94,70,41,0.00,40.00,7,2,9,0.00
2012-7-30,88.0,76.5,67.0,68.0,64.3,58.0,95,69,36,0.00,40.00,7,2,11,0.00
2012-7-31,94.0,79.0,67.0,71.0,66.1,61.0,94,68,33,0.00,40.00,6,2,13,0.00
2012-8-1,93.0,81.1,71.0,71.0,66.0,59.0,92,64,33,0.00,40.00,7,2,12,0.00
2012-8-2,92.0,79.6,67.0,70.0,65.6,60.0,92,66,36,0.00,40.00,7,2,11,0.00
2012-8-3,85.0,77.7,72.0,74.0,70.0,67.0,88,77,64,0.00,40.00,9,3,16,0.00
2012-8-4,92.0,81.9,74.0,76.0,72.8,70.0,89,75,56,0.00,40.00,12,5,19,0.00
2012-8-5,91.0,80.9,74.0,77.0,72.5,69.0,94,76,50,0.00,40.00,10,4,18,0.00
2012-8-6,91.0,77.2,66.0,72.0,61.7,51.0,95,64,27,0.00,40.00,6,2,9,0.00
2012-8-7,92.0,77.6,64.0,69.0,63.8,59.0,92,66,34,0.00,40.00,6,2,11,0.00
2012-8-8,99.0,83.0,69.0,71.0,65.1,57.0,93,61,25,0.00,40.00,8,2,16,0.00
2012-8-9,91.0,74.6,68.0,73.0,65.2,61.0,95,74,48,0.00,40.00,10,3,17,1.69
2012-8-10,79.0,71.1,67.0,67.0,60.9,51.0,97,72,48,0.00,40.00,12,5,26,4.49
2012-8-11,81.0,69.2,62.0,58.0,53.4,-99.9,81,60,33,0.00,40.00,10,4,16,0.00
2012-8-12,83.0,70.8,59.0,62.0,57.6,50.0,95,67,34,0.00,40.00,6,2,11,0.00
2012-8-13,80.0,72.8,67.0,66.0,62.1,57.0,86,70,49,0.00,40.00,6,2,11,0.00
2012-8-14,81.0,73.7,69.0,66.0,63.7,61.0,87,71,53,0.00,40.00,9,3,16,0.00
2012-8-15,86.0,73.8,66.0,65.0,62.2,55.0,92,70,36,0.00,40.00,6,2,11,0.00
2012-8-16,88.0,75.5,65.0,69.0,63.3,58.0,94,69,40,0.00,40.00,11,3,18,1.69
2012-8-17,84.0,73.6,66.0,67.0,60.6,52.0,93,67,36,0.00,40.00,9,3,19,0.55
2012-8-18,83.0,69.7,60.0,60.0,55.4,50.0,87,63,34,0.00,40.00,7,2,10,0.00
2012-8-19,83.0,70.7,61.0,59.0,55.4,50.0,88,62,34,0.00,40.00,7,2,12,0.00
2012-8-20,83.0,69.2,57.0,58.0,52.0,43.0,89,59,25,0.00,40.00,6,2,12,0.00
2012-8-21,82.0,70.1,60.0,60.0,56.0,53.0,86,62,38,0.00,40.00,7,2,12,0.00
2012-8-22,87.0,71.2,59.0,62.0,57.5,51.0,94,66,31,0.00,40.00,5,2,9,0.00
2012-8-23,89.0,72.9,60.0,62.0,58.5,53.0,96,66,32,0.00,40.00,6,2,9,0.00
2012-8-24,91.0,75.3,62.0,65.0,60.0,55.0,94,64,30,0.00,40.00,6,2,12,0.00
2012-8-25,94.0,77.3,65.0,67.0,62.2,56.0,93,64,30,0.00,40.00,7,2,12,0.00
2012-8-26,92.0,78.3,66.0,69.0,64.8,60.0,94,67,35,0.00,40.00,7,2,14,0.00
2012-8-27,90.0,77.1,72.0,74.0,69.8,65.0,96,79,50,0.00,40.00,8,2,20,0.00
2012-8-28,90.0,76.9,67.0,72.0,63.9,57.0,96,68,34,0.00,40.00,5,2,9,0.00
2012-8-29,86.0,72.5,63.0,61.0,59.1,55.0,89,66,35,0.00,40.00,7,2,11,0.55
2012-8-30,89.0,72.2,60.0,63.0,57.0,-99.9,90,64,30,0.00,40.00,7,-5,12,0.55
2012-8-31,89.0,78.4,67.0,74.0,69.3,64.0,91,75,56,0.00,40.00,7,3,16,0.55
2012-9-1,89.0,80.0,74.0,77.0,73.0,70.0,95,80,56,0.00,40.00,8,2,17,0.00
2012-9-2,84.0,76.2,69.0,75.0,70.4,-99.9,96,84,67,0.00,40.00,10,-4,29,1.69
2012-9-3,74.0,72.4,70.0,73.0,70.9,69.0,97,95,93,0.00,40.00,6,2,9,3.30
2012-9-4,88.0,83.3,75.0,73.0,72.7,72.0,93,72,61,0.00,40.00,4,2,9,0.00
2012-9-10,78.0,70.5,59.0,56.0,51.2,47.0,89,53,36,0.00,40.00,6,2,11,0.00
2012-9-11,80.0,65.1,55.0,58.0,52.3,-99.9,97,69,35,0.00,40.00,7,-5,12,1.10
2012-9-12,87.0,69.0,57.0,66.0,57.8,-99.9,95,73,36,0.00,40.00,6,-6,11,6.22
2012-9-13,85.0,73.8,67.0,65.0,62.9,58.0,92,71,42,0.00,40.00,5,2,9,0.00
2012-9-14,81.0,66.7,57.0,64.0,59.7,52.0,97,79,52,0.00,40.00,12,3,20,4.53
2012-9-15,75.0,62.2,52.0,55.0,50.7,44.0,93,70,33,0.00,40.00,6,2,12,0.00
2012-9-16,80.0,65.6,54.0,57.0,51.5,45.0,90,64,32,0.00,40.00,6,2,8,0.00
2012-9-17,73.0,65.7,59.0,66.0,61.3,57.0,93,86,70,0.00,40.00,6,2,12,0.00
2012-9-18,69.0,65.6,57.0,65.0,56.0,41.0,94,73,39,0.00,40.00,13,5,22,0.00
2012-9-19,69.0,56.6,45.0,49.0,41.8,33.0,96,63,29,0.00,40.00,7,2,10,0.00
2012-9-20,77.0,62.3,49.0,58.0,49.2,42.0,93,65,37,0.00,40.00,11,3,18,0.00
2012-9-21,73.0,65.0,56.0,61.0,55.3,49.0,92,73,44,0.00,40.00,12,3,22,0.55
2012-9-22,73.0,63.2,50.0,62.0,47.9,28.0,95,61,30,0.00,40.00,17,6,30,0.55
2012-9-23,65.0,52.0,42.0,43.0,38.3,-99.9,94,64,34,0.00,40.00,8,2,14,0.00
2012-9-24,70.0,54.3,43.0,47.0,40.8,34.0,96,67,27,0.00,40.00,9,2,16,1.10
2012-9-25,67.0,58.4,50.0,60.0,51.0,-99.9,91,78,59,0.00,40.00,10,-3,18,0.55
2012-9-26,77.0,68.8,63.0,67.0,62.9,58.0,95,82,62,0.00,40.00,9,4,19,3.34
2012-9-27,74.0,67.4,64.0,65.0,63.2,61.0,95,87,69,0.00,40.00,8,2,11,2.75
2012-9-28,68.0,63.1,59.0,61.0,59.1,56.0,93,87,77,0.00,40.00,4,2,10,0.00
2012-9-29,74.0,64.0,56.0,60.0,53.7,46.0,94,72,38,0.00,40.00,5,2,11,0.00
2012-9-30,74.0,60.5,51.0,56.0,50.0,43.0,97,73,34,0.00,40.00,6,2,14,0.00
2012-10-1,65.0,57.4,52.0,57.0,50.2,46.0,95,78,55,0.00,40.00,14,3,18,1.10
2012-10-2,75.0,65.3,58.0,67.0,61.8,56.0,95,89,74,0.00,40.00,4,1,10,2.20
2012-10-3,73.0,64.3,58.0,60.0,54.6,51.0,91,72,51,0.00,40.00,8,4,16,0.00
2012-10-4,79.0,64.7,54.0,59.0,55.3,53.0,97,75,43,0.00,40.00,9,3,19,0.00
2012-10-5,77.0,64.0,48.0,60.0,55.8,45.0,94,76,52,0.00,40.00,13,4,21,0.00
2012-10-6,60.0,49.9,42.0,43.0,35.5,27.0,92,61,31,0.00,40.00,13,4,21,1.65
2012-10-7,53.0,48.2,40.0,39.0,35.1,32.0,84,61,46,0.00,40.00,9,2,19,0.00
2012-10-8,58.0,45.8,38.0,41.0,37.0,32.0,95,74,39,0.00,40.00,6,2,11,0.00
2012-10-9,64.0,49.9,39.0,43.0,39.9,37.0,95,72,38,0.00,40.00,10,3,14,3.39
2012-10-10,59.0,51.1,40.0,44.0,37.3,28.0,82,61,38,0.00,40.00,12,5,24,0.00
2012-10-11,63.0,47.2,36.0,39.0,34.0,29.0,95,65,29,0.00,40.00,7,2,12,0.00
2012-10-12,62.0,50.0,42.0,42.0,39.4,35.0,93,69,38,0.00,40.00,10,2,16,3.39
2012-10-13,74.0,56.9,40.0,61.0,47.1,35.0,92,72,49,0.00,40.00,9,3,14,0.00
2012-10-14,74.0,68.4,64.0,62.0,58.1,54.0,85,69,59,0.00,40.00,17,8,32,1.65
2012-10-15,65.0,57.3,46.0,58.0,44.7,38.0,81,64,39,0.00,40.00,11,5,21,0.55
2012-10-16,68.0,52.8,41.0,46.0,41.9,40.0,96,70,37,0.00,40.00,8,2,12,0.00
2012-10-17,77.0,64.0,53.0,50.0,46.2,42.0,81,54,35,0.00,40.00,12,6,22,0.00
2012-10-18,67.0,58.8,49.0,53.0,42.3,30.0,87,57,26,0.00,40.00,16,7,26,3.30
2012-10-19,58.0,51.3,47.0,46.0,39.5,35.0,86,65,45,0.00,40.00,11,5,20,3.30
2012-10-20,56.0,50.8,44.0,45.0,43.4,41.0,89,76,59,0.00,40.00,9,4,18,3.94
2012-10-21,70.0,52.9,41.0,51.0,45.0,40.0,96,78,44,0.00,40.00,7,2,12,0.00
2012-10-22,78.0,62.9,50.0,57.0,50.8,48.0,92,68,41,0.00,40.00,12,3,18,2.83
2012-10-23,80.0,67.9,56.0,53.0,50.4,48.0,84,56,35,0.00,40.00,10,3,17,0.55
2012-10-24,81.0,68.4,58.0,58.0,54.5,51.0,85,63,37,0.00,40.00,11,3,17,0.00
2012-10-25,80.0,64.0,51.0,57.0,52.6,49.0,93,70,39,0.00,40.00,12,4,22,0.00
2012-10-26,62.0,52.4,46.0,54.0,48.3,44.0,95,86,75,0.00,40.00,11,4,19,24.16
2012-10-27,54.0,48.0,44.0,44.0,41.1,36.0,93,78,61,0.00,40.00,10,5,18,5.54
2012-10-28,49.0,47.3,45.0,38.0,35.0,29.0,74,62,51,0.00,40.00,13,7,23,0.00
2012-10-29,47.0,44.1,41.0,33.0,27.7,19.0,66,53,33,0.00,40.00,19,11,34,0.00
2012-10-30,46.0,40.6,36.0,38.0,34.2,24.0,90,79,42,0.00,40.00,23,10,42,14.94
2012-10-31,44.0,41.9,40.0,38.0,35.8,32.0,89,79,66,0.00,40.00,14,6,21,8.33
2012-11-1,55.0,47.3,40.0,34.0,26.8,14.0,71,48,20,0.00,40.00,11,5,20,0.00
2012-11-2,54.0,46.2,37.0,33.0,29.2,24.0,78,52,35,0.00,40.00,12,3,16,0.00
2012-11-3,45.0,38.3,32.0,39.0,34.3,30.0,96,86,64,0.00,40.00,6,1,12,2.24
2012-11-4,48.0,40.4,33.0,38.0,32.4,29.0,93,74,54,0.00,40.00,6,2,12,0.00
2012-11-5,50.0,38.1,31.0,32.0,29.5,28.0,88,73,48,0.00,40.00,5,2,9,0.00
2012-11-6,51.0,46.4,42.0,35.0,31.1,28.0,73,56,42,0.00,40.00,4,1,8,0.00
2012-11-7,55.0,46.1,38.0,36.0,32.3,29.0,82,60,38,0.00,40.00,7,2,13,0.00
2012-11-8,54.0,41.2,32.0,35.0,31.7,29.0,91,72,38,0.00,40.00,4,1,9,1.10
2012-11-9,63.0,44.8,32.0,41.0,35.5,30.0,95,73,38,0.00,40.00,9,2,18,0.55
2012-11-10,73.0,56.2,44.0,46.0,41.9,38.0,86,62,34,0.00,40.00,11,3,19,0.00
2012-11-11,70.0,57.0,41.0,46.0,39.1,34.0,89,56,27,0.00,40.00,19,6,32,3.94
2012-11-12,64.0,48.8,32.0,56.0,41.6,26.0,93,77,53,0.00,40.00,14,6,26,14.00
2012-11-13,45.0,35.1,28.0,29.0,25.4,20.0,92,70,39,0.00,40.00,7,2,12,1.10
2012-11-14,44.0,35.1,27.0,28.0,24.7,-99.9,89,69,46,0.00,40.00,7,2,12,0.00
2012-11-15,49.0,36.7,28.0,32.0,27.9,25.0,90,72,44,0.00,40.00,7,2,11,0.00
2012-11-16,52.0,38.2,28.0,34.0,30.7,26.0,93,76,47,0.00,40.00,6,2,12,0.00
2012-11-17,60.0,41.5,29.0,35.0,30.3,27.0,93,69,28,0.00,40.00,6,2,9,0.00
2012-11-18,61.0,42.2,29.0,34.0,29.1,26.0,90,65,27,0.00,40.00,4,1,6,0.00
2012-11-19,60.0,43.3,31.0,40.0,34.0,28.0,90,71,44,0.00,40.00,4,1,8,0.00
2012-11-20,62.0,48.8,38.0,41.0,37.7,33.0,92,68,35,0.00,40.00,5,2,7,0.00
2012-11-21,65.0,50.9,40.0,40.0,37.9,36.0,87,64,35,0.00,40.00,4,1,9,0.00
2012-11-22,67.0,48.1,35.0,42.0,38.0,33.0,93,71,37,0.00,40.00,12,3,17,0.00
2012-11-23,60.0,47.8,34.0,49.0,31.5,19.0,84,53,42,0.00,40.00,17,9,30,0.00
2012-11-24,36.0,32.1,26.0,21.0,18.9,17.0,78,58,48,0.00,40.00,9,4,16,0.00
2012-11-25,49.0,37.0,26.0,31.0,23.2,19.0,79,59,37,0.00,40.00,10,4,16,0.00
2012-11-26,53.0,42.4,30.0,32.0,29.1,26.0,88,62,40,0.00,40.00,8,2,12,0.00
2012-11-27,42.0,35.9,28.0,34.0,26.5,23.0,91,69,48,0.00,40.00,9,3,17,0.00
2012-11-28,46.0,33.5,25.0,26.0,23.8,20.0,90,70,39,0.00,40.00,6,2,11,0.00
2012-11-29,51.0,35.3,25.0,31.0,26.4,23.0,93,73,38,0.00,40.00,7,2,12,0.00
2012-11-30,59.0,43.8,31.0,40.0,33.9,28.0,90,71,43,0.00,40.00,11,3,21,0.00
2012-12-1,63.0,50.6,42.0,46.0,41.3,38.0,86,72,50,0.00,40.00,12,3,16,0.00
2012-12-2,60.0,57.0,53.0,57.0,50.7,44.0,96,80,59,0.00,40.00,12,5,24,0.00
2012-12-3,72.0,61.8,53.0,58.0,54.8,52.0,97,79,58,0.00,40.00,10,3,19,0.00
2012-12-4,66.0,58.0,43.0,59.0,50.9,42.0,95,78,67,0.00,40.00,12,5,21,0.00
2012-12-5,50.0,41.2,32.0,42.0,34.6,27.0,96,79,44,0.00,40.00,7,2,12,0.00
2012-12-6,49.0,38.1,29.0,44.0,30.3,-99.9,93,77,57,0.00,40.00,6,1,9,3.34
2012-12-7,56.0,50.4,46.0,53.0,49.3,44.0,97,96,90,0.00,40.00,4,1,9,16.75
2012-12-8,57.0,53.2,49.0,53.0,49.6,44.0,97,88,75,0.00,40.00,8,2,12,7.28
2012-12-9,61.0,53.2,48.0,57.0,49.5,44.0,95,87,79,0.00,40.00,8,4,22,1.10
2012-12-10,57.0,44.0,34.0,54.0,38.5,26.0,96,81,70,0.00,40.00,12,5,18,1.69
2012-12-11,36.0,33.1,27.0,28.0,24.6,20.0,85,71,55,0.00,40.00,7,3,14,0.00
2012-12-12,45.0,31.8,25.0,29.0,25.1,23.0,94,78,46,0.00,40.00,6,2,10,0.55
2012-12-13,49.0,33.7,26.0,31.0,26.7,24.0,95,78,39,0.00,40.00,4,2,9,0.00
2012-12-14,57.0,38.6,28.0,34.0,28.6,23.0,95,73,26,0.00,40.00,7,2,11,0.55
2012-12-15,55.0,45.3,35.0,44.0,37.2,31.0,89,74,58,0.00,40.00,9,3,16,0.55
2012-12-16,62.0,56.6,48.0,53.0,48.8,43.0,92,75,65,0.00,40.00,10,5,20,0.00
2012-12-17,51.0,47.5,44.0,48.0,45.4,42.0,96,92,87,0.00,40.00,15,2,25,8.42
2012-12-18,46.0,41.8,36.0,44.0,36.2,32.0,92,81,70,0.00,40.00,12,4,18,0.00
2012-12-19,49.0,43.9,39.0,38.0,34.6,32.0,82,70,58,0.00,40.00,11,3,20,0.00
2012-12-20,52.0,45.9,34.0,48.0,38.6,24.0,93,76,60,0.00,40.00,19,10,37,0.00
2012-12-21,34.0,30.3,28.0,25.0,21.5,19.0,78,70,65,0.00,40.00,21,12,34,0.00
2012-12-22,37.0,30.8,26.0,22.0,20.4,18.0,81,66,49,0.00,40.00,12,5,22,0.00
2012-12-23,51.0,35.5,25.0,32.0,25.9,21.0,87,70,41,0.00,40.00,7,2,12,0.00
2012-12-24,45.0,36.8,29.0,42.0,33.3,26.0,94,87,71,0.00,40.00,11,2,19,0.00
2012-12-25,37.0,34.8,33.0,29.0,27.1,25.0,78,73,67,0.00,40.00,9,4,16,0.00
2012-12-26,35.0,33.3,30.0,33.0,29.1,24.0,94,85,67,0.00,40.00,14,6,25,0.00
2012-12-27,33.0,30.3,28.0,26.0,23.5,21.0,89,75,69,0.00,40.00,11,3,17,0.00
2012-12-28,37.0,32.1,28.0,30.0,27.0,25.0,90,81,71,0.00,40.00,6,2,10,0.00
2012-12-29,34.0,31.3,28.0,31.0,25.7,19.0,94,80,69,0.00,40.00,13,-6,23,1.10
2012-12-30,32.0,27.4,24.0,21.0,18.9,16.0,83,70,58,0.00,40.00,14,4,23,1.10
2012-12-31,38.0,31.8,24.0,30.0,24.5,20.0,86,74,59,0.00,40.00,7,3,13,0.55
2013-1-1,35.0,33.0,29.0,32.0,27.7,20.0,94,81,66,0.00,40.00,7,2,13,0.55